User: anonymous   Login
Location: Ab? ar R?sh Ba?r?
(24.1861°N, 32.8847°E)
Time: 23:05:10
(UTC+00:00)
Language:

CZ-3 Stage 3 - Orbit

View from above orbital plane
View from above orbital plane
View from above satellite
View from above satellite

Ground track
Ground track

The orbit data is extracted from the following two-line orbital elements,

1 14900U 84035B   22020.49108636 -.00000119  00000-0 -57695-3 0  9995
2 14900  30.4953 182.4380 7125968 187.9133 147.5639  2.33944227254008
Epoch (UTC): 20 January 2022 11:47:09
Eccentricity: 0.7125968
inclination: 30.4953°
perigee height: 511 km
apogee height: 34672 km
right ascension of ascending node: 182.4380°
argument of perigee: 187.9133°
revolutions per day: 2.33944227
mean anomaly at epoch: 147.5639°
orbit number at epoch: 25400

The dashed part of the orbit path shows where the satellite is in the earth's shadow,  

DLR